Emporia, KS

11:29 AM CDT on July 26, 2017 (GMT -0500)
Emporia Municipal

Weather History for KEMP - November, 2012

Change the Weather History Date:

Tuesday, November 13, 2012

  Actual Average Record
Temperature  
Mean Temperature 41 °F 46 °F  
Max Temperature 57 °F 57 °F 82 °F (1999)
Min Temperature 25 °F 35 °F 11 °F (2014)
Degree Days  
Heating Degree Days 24 19  
Month to date heating degree days 178 214  
Since 1 July heating degree days 536 541  
Cooling Degree Days 0 0  
Month to date cooling degree days 3 0  
Year to date cooling degree days 1912 1402  
Moisture  
Dew Point 26 °F    
Average Humidity 58    
Maximum Humidity 85    
Minimum Humidity 30    
Precipitation  
Precipitation 0.00 in 0.07 in 0.00 in (2017)
Month to date precipitation 0.83 1.21  
Year to date precipitation 21.18 34.09  
Sea Level Pressure  
Sea Level Pressure 30.41 in    
Wind  
Wind Speed 7 mph (South)    
Max Wind Speed 18 mph    
Max Gust Speed 23 mph    
Visibility 10 miles    
Events      
T = Trace of Precipitation, MM = Missing Value Source: NWS Daily Summary

Daily Weather History Graph

Daily Weather History Graph

Search for Another Location

Airport or City:

Trip Planner

Search our weather history database for the weather conditions in past years. The results will help you decide how hot, cold, wet, or windy it might be!

Date:

Astronomy

Nov. 13, 2012 Rise Set
Actual Time 7:04 AM CST 5:13 PM CST
Civil Twilight 6:36 AM CST 5:41 PM CST
Nautical Twilight 6:04 AM CST 6:13 PM CST
Astronomical Twilight 5:33 AM CST 6:44 PM CST
Moon 6:43 AM CST (11/13) 5:07 PM CST (11/13)
Length of Visible Light 11h 05m
Length of Day
10h 08m
Waning Crescent, 0% of the Moon is Illuminated
Nov 13
Waning Crescent
Nov 13
New
Nov 20
First Quarter
Nov 28
Full
Dec 6
Last Quarter

Hourly Weather History & Observations

Time (CST) Temp. Windchill Dew Point Humidity Pressure Visibility Wind Dir Wind Speed Gust Speed Precip Events Conditions
12:53 AM 28.9 °F - 21.0 °F 72% 30.46 in 10.0 mi Calm Calm - N/A   Clear
1:53 AM 30.9 °F 27.5 °F 21.9 °F 69% 30.45 in 10.0 mi South 3.5 mph - N/A   Clear
2:53 AM 27.0 °F 23.0 °F 21.0 °F 78% 30.44 in 10.0 mi SE 3.5 mph - N/A   Clear
3:53 AM 34.0 °F - 24.1 °F 67% 30.43 in 10.0 mi Calm Calm - N/A   Clear
4:53 AM 27.0 °F - 21.9 °F 81% 30.44 in 10.0 mi Calm Calm - N/A   Clear
5:53 AM 26.1 °F 20.5 °F 21.9 °F 84% 30.45 in 10.0 mi SE 4.6 mph - N/A   Clear
6:53 AM 26.1 °F 18.4 °F 21.9 °F 84% 30.45 in 10.0 mi SSE 6.9 mph - N/A   Clear
7:53 AM 28.9 °F 22.8 °F 25.0 °F 85% 30.45 in 10.0 mi South 5.8 mph - N/A   Clear
8:53 AM 36.0 °F 33.3 °F 30.0 °F 79% 30.46 in 10.0 mi South 3.5 mph - N/A   Clear
9:53 AM 46.0 °F 43.1 °F 33.1 °F 61% 30.45 in 10.0 mi South 5.8 mph - N/A   Clear
10:53 AM 52.0 °F - 27.0 °F 38% 30.44 in 10.0 mi SW 15.0 mph 20.7 mph N/A   Clear
11:53 AM 54.0 °F - 26.1 °F 34% 30.41 in 10.0 mi SW 12.7 mph - N/A   Clear
12:53 PM 55.9 °F - 26.1 °F 32% 30.38 in 10.0 mi SW 13.8 mph 19.6 mph N/A   Clear
1:53 PM 55.9 °F - 25.0 °F 30% 30.36 in 10.0 mi SSW 17.3 mph 20.7 mph N/A   Clear
2:53 PM 54.0 °F - 24.1 °F 31% 30.34 in 10.0 mi SSW 15.0 mph - N/A   Clear
3:53 PM 53.1 °F - 25.0 °F 34% 30.33 in 10.0 mi South 10.4 mph - N/A   Clear
4:53 PM 50.0 °F - 27.0 °F 41% 30.34 in 10.0 mi SSW 6.9 mph - N/A   Clear
5:53 PM 44.1 °F 40.1 °F 27.0 °F 51% 30.36 in 10.0 mi South 6.9 mph - N/A   Clear
6:53 PM 45.0 °F 41.2 °F 27.0 °F 49% 30.38 in 10.0 mi SSE 6.9 mph - N/A   Clear
7:53 PM 44.1 °F 40.1 °F 28.0 °F 53% 30.38 in 10.0 mi SSE 6.9 mph - N/A   Clear
8:53 PM 44.1 °F 39.0 °F 28.0 °F 53% 30.39 in 10.0 mi SSE 9.2 mph - N/A   Clear
9:53 PM 39.9 °F 35.1 °F 28.0 °F 63% 30.40 in 10.0 mi South 6.9 mph - N/A   Clear
10:53 PM 39.9 °F 34.5 °F 28.0 °F 63% 30.39 in 10.0 mi South 8.1 mph - N/A   Clear
11:53 PM 39.9 °F 35.1 °F 27.0 °F 60% 30.38 in 10.0 mi SSE 6.9 mph - N/A   Clear